Stations météo

réclame
Mon MeteoGroup
Villanueva De Cordoba, Espagne (8346): Température de l'air & dewpoint: 20.04.2018 22:00:00 - 26.04.2018 22:00:00 (CEST)Villanueva De Cordoba, Espagne (8346): Vitesse du vent & gusts: 20.04.2018 22:00:00 - 26.04.2018 22:00:00 (CEST)Villanueva De Cordoba, Espagne (8346): Direction du vent: 20.04.2018 22:00:00 - 26.04.2018 22:00:00 (CEST)Villanueva De Cordoba, Espagne (8346): reduced air pressure: 20.04.2018 22:00:00 - 26.04.2018 22:00:00 (CEST)Villanueva De Cordoba, Espagne (8346): visibility: 20.04.2018 22:00:00 - 26.04.2018 22:00:00 (CEST)Villanueva De Cordoba, Espagne (8346): Ensoleillement: 20.04.2018 22:00:00 - 26.04.2018 22:00:00 (CEST)Villanueva De Cordoba, Espagne (8346): Quantités de précipitations: 20.04.2018 22:00:00 - 26.04.2018 22:00:00 (CEST)
Date & Time tt [°C] td [°C] ff [km/h] ff [knt] fx [km/h] fx [knt] dd ppp [hPa] vv [km] sd [min] rr [mm]
26.04.2018 22:00:00 18,9 10,2 8 4 17 9 SSW 1014,8 20 0 0,0
26.04.2018 21:00:00 21,3 9,6 6 3 17 9 W 1013,5 20 34 0,0
26.04.2018 20:00:00 23,1 9,2 8 4 22 12 WNW 1012,8 20 60 -
26.04.2018 19:00:00 24,1 7,7 8 4 19 10 NW 1012,5 20 60 0,0
26.04.2018 18:00:00 24,5 8,8 9 5 22 12 WNW 1012,5 20 58 0,0
26.04.2018 17:00:00 24,8 8,3 10 6 19 10 W 1012,5 20 49 0,0
26.04.2018 16:00:00 24,3 8,3 5 3 14 8 W 1013,2 20 54 0,0
26.04.2018 15:00:00 23,5 8,0 4 2 21 11 SE 1013,9 20 44 0,0
26.04.2018 14:00:00 23,0 8,3 6 4 24 13 E 1014,3 20 60 -
26.04.2018 13:00:00 22,2 8,7 13 7 29 16 E 1014,8 20 60 0,0
26.04.2018 12:00:00 21,6 9,4 5 3 22 12 ESE 1015,1 20 60 0,0
26.04.2018 11:00:00 20,2 10,3 4 2 13 7 SE 1015,3 20 60 0,0
26.04.2018 10:00:00 18,3 9,4 5 3 14 8 SE 1015,7 20 60 0,0
26.04.2018 09:00:00 16,1 7,8 4 2 9 5 ESE 1016,2 20 46 0,0
26.04.2018 08:00:00 12,3 6,1 6 4 9 5 E 1017,1 20 0 -
26.04.2018 07:00:00 12,9 5,3 6 3 10 5 E 1016,5 20 0 0,0
26.04.2018 06:00:00 12,7 6,2 5 3 12 6 NE 1016,3 20 0 0,0
26.04.2018 05:00:00 13,1 6,7 3 2 8 4 NNE 1016,4 20 0 0,0
26.04.2018 04:00:00 13,4 7,6 6 3 10 5 NNW 1016,3 20 0 0,0
26.04.2018 03:00:00 12,8 7,8 6 3 13 7 NW 1017,1 20 0 0,0
26.04.2018 02:00:00 13,0 6,5 4 2 12 6 ENE 1017,1 20 0 -
26.04.2018 01:00:00 13,9 8,1 6 4 15 8 E 1016,4 20 0 0,0
26.04.2018 00:00:00 14,0 10,2 8 4 16 8 ENE 1016,6 20 0 0,0
25.04.2018 23:00:00 15,4 12,5 7 4 16 9 ENE 1016,4 12 0 0,2
25.04.2018 22:00:00 17,1 13,5 5 3 17 9 NNE 1016,5 18 0 2,2
25.04.2018 21:00:00 20,3 11,8 8 4 18 10 S 1013,2 20 23 0,0
25.04.2018 20:00:00 22,6 11,0 8 5 24 13 SSE 1011,9 20 51 -
25.04.2018 19:00:00 22,7 1,7 13 7 40 22 NE 1011,9 20 37 0,0
25.04.2018 18:00:00 24,0 5,8 15 8 37 20 NE 1011,4 20 60 0,0
25.04.2018 17:00:00 24,1 5,5 15 8 38 20 NNE 1011,6 20 60 0,0
25.04.2018 16:00:00 23,8 3,6 16 9 34 18 NE 1012,3 20 60 0,0
25.04.2018 15:00:00 23,7 3,0 11 6 30 16 E 1012,6 20 60 0,0
25.04.2018 14:00:00 22,8 4,3 11 6 24 13 ENE 1013,0 20 60 -
25.04.2018 13:00:00 20,8 6,7 11 6 26 14 N 1014,1 20 57 0,0
25.04.2018 12:00:00 19,1 9,6 9 5 16 9 NNW 1014,6 20 43 0,0
25.04.2018 11:00:00 18,2 7,6 3 2 6 4 NE 1014,9 20 22 0,0
25.04.2018 10:00:00 16,0 9,2 2 1 8 5 NE 1015,7 20 0 0,0
25.04.2018 09:00:00 13,9 9,6 5 3 12 6 ENE 1016,2 20 0 0,0
25.04.2018 08:00:00 13,5 8,4 6 3 13 7 ESE 1015,8 20 0 -
25.04.2018 07:00:00 13,8 10,0 6 4 12 6 SE 1015,1 18 0 0,0
25.04.2018 06:00:00 13,8 10,8 7 4 15 8 ESE 1015,4 15 0 0,0
25.04.2018 05:00:00 14,2 9,0 8 4 24 13 SSE 1014,8 20 0 0,0
25.04.2018 04:00:00 15,7 8,7 12 7 26 14 E 1014,1 20 0 0,0
25.04.2018 03:00:00 15,1 10,0 11 6 20 11 E 1013,9 20 0 0,0
25.04.2018 02:00:00 14,6 10,0 9 5 19 11 SSE 1014,9 20 0 -
25.04.2018 01:00:00 15,5 9,4 8 5 21 11 E 1014,8 20 0 0,0
25.04.2018 00:00:00 17,0 8,7 5 3 16 9 NW 1013,6 20 0 0,0
24.04.2018 23:00:00 17,4 9,6 8 4 20 11 W 1013,4 20 0 0,0
24.04.2018 22:00:00 18,8 9,8 10 5 17 9 NW 1012,2 20 0 0,0
24.04.2018 21:00:00 20,1 9,9 6 4 16 8 NNW 1011,5 20 0 0,0
24.04.2018 20:00:00 22,1 9,6 8 4 19 11 N 1010,7 20 24 -
24.04.2018 19:00:00 24,6 6,8 2 1 13 7 N 1010,1 20 31 0,0
24.04.2018 18:00:00 24,8 5,6 6 3 23 12 E 1010,2 20 37 0,0
24.04.2018 17:00:00 24,8 5,0 9 5 24 13 E 1010,3 20 60 0,0
24.04.2018 16:00:00 24,7 5,5 10 5 27 15 ESE 1011,0 20 53 0,0
24.04.2018 15:00:00 23,7 4,6 8 5 23 12 E 1011,6 20 27 0,0
24.04.2018 14:00:00 23,2 4,1 10 6 24 13 E 1011,9 20 23 -
24.04.2018 13:00:00 22,5 3,0 11 6 28 15 E 1012,4 20 52 0,0
24.04.2018 12:00:00 21,9 3,6 16 9 29 15 E 1012,6 20 53 0,0
24.04.2018 11:00:00 18,9 7,7 5 3 12 7 NE 1013,4 20 22 0,0
24.04.2018 10:00:00 16,5 7,1 7 4 15 8 NE 1013,8 20 0 0,0
24.04.2018 09:00:00 15,2 7,4 6 3 15 8 NNE 1013,9 19 0 0,0
24.04.2018 08:00:00 15,6 6,5 7 4 14 7 N 1013,6 19 0 -
24.04.2018 07:00:00 15,9 6,8 9 5 18 10 NE 1013,1 20 0 0,0
24.04.2018 06:00:00 17,8 4,3 9 5 22 12 E 1012,7 20 0 0,0
24.04.2018 05:00:00 17,0 5,6 10 5 19 11 E 1012,9 16 0 0,0
24.04.2018 04:00:00 17,2 6,1 8 4 29 16 ESE 1012,9 18 0 0,0
24.04.2018 03:00:00 17,8 5,0 15 8 32 18 E 1012,7 20 0 0,0
24.04.2018 02:00:00 17,5 5,8 10 5 23 13 ENE 1013,5 20 0 -
24.04.2018 01:00:00 17,4 6,5 7 4 20 11 E 1014,0 20 0 0,0
24.04.2018 00:00:00 18,6 5,8 8 5 19 11 SE 1013,8 20 0 0,0
23.04.2018 23:00:00 18,0 6,8 9 5 17 9 SE 1013,6 2,4 0 0,0
23.04.2018 22:00:00 18,3 7,1 8 4 21 12 ENE 1012,0 20 0 0,0
23.04.2018 21:00:00 18,8 8,4 10 5 20 11 ENE 1011,3 20 0 0,0
23.04.2018 20:00:00 20,6 8,9 13 7 40 22 E 1010,9 20 0 -
23.04.2018 19:00:00 21,8 8,7 11 6 28 15 E 1011,0 20 0 0,0
23.04.2018 18:00:00 23,4 7,4 7 4 27 15 ESE 1010,9 20 0 0,0
23.04.2018 17:00:00 23,7 7,3 14 8 30 16 E 1010,7 20 8 0,0
23.04.2018 16:00:00 21,8 8,3 12 7 27 15 E 1011,6 20 0 0,0
23.04.2018 15:00:00 21,9 8,8 12 7 38 21 E 1012,3 20 0 0,0
23.04.2018 14:00:00 21,3 7,6 11 6 39 21 E 1013,1 20 36 -
23.04.2018 13:00:00 20,4 8,7 20 11 36 19 E 1014,1 19 46 0,0
23.04.2018 12:00:00 18,3 10,2 9 5 37 20 ENE 1015,3 20 0 0,0
23.04.2018 11:00:00 16,6 9,3 14 8 37 20 NE 1015,5 20 33 0,0
23.04.2018 10:00:00 16,3 11,4 12 6 25 13 NNE 1015,2 20 59 0,0
23.04.2018 09:00:00 12,8 11,3 13 7 24 13 N 1016,0 20 7 0,0
23.04.2018 08:00:00 12,2 11,0 12 7 25 13 NNW 1016,0 20 0 -
23.04.2018 07:00:00 12,6 11,0 13 7 24 13 NNW 1015,6 20 0 0,0
23.04.2018 06:00:00 12,6 10,9 11 6 22 12 NNW 1015,2 20 0 0,2
23.04.2018 05:00:00 13,1 11,1 13 7 33 18 ENE 1015,8 20 0 0,4
23.04.2018 04:00:00 13,4 11,1 9 5 25 14 NE 1016,1 20 0 4,6
23.04.2018 03:00:00 15,6 10,8 11 6 29 16 S 1016,9 14 0 0,4
23.04.2018 02:00:00 16,2 8,4 9 5 18 10 E 1015,0 20 0 -
23.04.2018 01:00:00 17,4 7,7 12 6 27 15 E 1014,4 20 0 0,0
23.04.2018 00:00:00 17,9 8,1 14 7 44 24 S 1014,0 20 0 0,0
22.04.2018 23:00:00 18,6 10,2 10 5 19 11 E 1012,7 20 0 0,0
22.04.2018 22:00:00 18,8 10,9 6 3 12 7 NNE 1012,0 20 0 0,0
22.04.2018 21:00:00 19,8 11,3 8 5 14 8 NNW 1010,9 20 7 0,0
22.04.2018 20:00:00 21,8 10,9 6 4 16 9 NW 1010,4 20 60 -
22.04.2018 19:00:00 22,3 11,3 10 5 22 12 WNW 1010,1 20 60 0,0
22.04.2018 18:00:00 22,7 12,0 9 5 19 11 NNW 1009,8 17 56 0,0
22.04.2018 17:00:00 23,8 12,4 5 3 18 10 NW 1009,5 20 53 0,0
22.04.2018 16:00:00 24,6 10,0 5 3 22 12 ESE 1009,4 20 59 0,0
22.04.2018 15:00:00 24,0 8,8 5 3 22 12 SE 1009,8 20 60 0,0
22.04.2018 14:00:00 21,8 8,7 10 5 26 14 E 1010,8 20 14 -
22.04.2018 13:00:00 17,2 8,4 10 6 28 15 ESE 1012,9 20 0 0,0
22.04.2018 12:00:00 17,6 8,9 11 6 21 12 ENE 1012,6 20 9 0,0
22.04.2018 11:00:00 17,5 7,8 8 4 18 10 E 1012,6 20 28 0,0
22.04.2018 10:00:00 15,6 8,1 7 4 17 9 NNE 1012,9 20 27 0,0
22.04.2018 09:00:00 13,3 8,0 8 4 16 9 NNE 1013,9 20 0 0,0
22.04.2018 08:00:00 11,1 8,8 9 5 19 11 N 1014,2 20 0 -
22.04.2018 07:00:00 11,4 9,4 11 6 22 12 NNW 1014,2 18 0 0,0
22.04.2018 06:00:00 11,8 9,6 9 5 15 8 N 1014,4 20 0 0,0
22.04.2018 05:00:00 12,1 10,2 7 4 18 10 N 1015,1 19 0 0,0
22.04.2018 04:00:00 12,7 10,3 9 5 20 11 N 1015,4 20 0 0,0
22.04.2018 03:00:00 13,7 10,3 11 6 24 13 N 1015,8 20 0 0,0
22.04.2018 02:00:00 14,2 10,4 14 7 30 16 NNE 1015,8 20 0 -
22.04.2018 01:00:00 14,8 10,2 15 8 32 18 NW 1016,4 20 0 0,0
22.04.2018 00:00:00 14,6 10,4 9 5 18 10 W 1015,9 20 0 0,0
21.04.2018 23:00:00 15,2 10,8 11 6 19 10 NNW 1014,7 20 0 0,0
21.04.2018 22:00:00 15,8 10,8 10 6 21 11 N 1013,5 20 0 0,0
21.04.2018 21:00:00 16,1 10,4 10 6 19 11 NW 1014,3 20 0 0,0
21.04.2018 20:00:00 17,4 10,5 13 7 22 12 NNE 1012,4 20 0 -
21.04.2018 19:00:00 19,7 10,6 7 4 16 9 N 1012,4 20 0 0,0
21.04.2018 18:00:00 20,5 8,5 6 3 16 8 NNW 1012,6 20 0 0,0
21.04.2018 17:00:00 21,0 8,7 4 2 16 9 NW 1013,1 20 0 0,0
21.04.2018 16:00:00 21,6 9,2 8 5 23 12 S 1013,1 20 9 0,0
21.04.2018 15:00:00 21,6 8,1 9 5 23 13 ESE 1012,7 20 51 0,0
21.04.2018 14:00:00 20,3 6,5 12 6 31 17 E 1013,7 20 23 -
21.04.2018 13:00:00 17,9 6,4 16 9 36 19 E 1014,2 20 12 0,0
21.04.2018 12:00:00 17,6 6,4 18 10 42 23 SE 1014,5 20 38 0,0
21.04.2018 11:00:00 15,7 7,1 11 6 37 20 SE 1014,9 20 11 0,0
21.04.2018 10:00:00 12,9 7,0 12 6 21 11 ENE 1015,8 20 0 0,0
21.04.2018 09:00:00 11,8 7,6 5 3 13 7 N 1016,7 20 0 0,0
21.04.2018 08:00:00 11,9 7,0 7 4 13 7 ENE 1016,5 20 0 -
21.04.2018 07:00:00 12,6 6,7 3 2 25 14 N 1016,7 20 0 0,0
21.04.2018 06:00:00 13,1 6,4 9 5 22 12 SE 1015,4 20 0 0,0
21.04.2018 05:00:00 13,2 6,7 11 6 35 19 SE 1014,6 20 0 0,0
21.04.2018 04:00:00 12,8 8,5 14 8 27 15 E 1014,6 20 0 0,0
21.04.2018 03:00:00 12,5 9,3 10 5 21 11 ENE 1016,1 20 0 0,0
21.04.2018 02:00:00 13,0 9,4 8 4 18 10 SE 1017,5 18 0 -
21.04.2018 01:00:00 13,7 9,6 9 5 16 8 S 1017,2 19 0 0,0
21.04.2018 00:00:00 15,2 8,3 5 3 10 5 SSE 1016,6 20 0 0,0
20.04.2018 23:00:00 16,1 8,5 2 1 7 4 WSW 1015,9 20 0 0,0
20.04.2018 22:00:00 17,0 6,8 4 2 16 9 SE 1015,3 20 0 0,0

tt = Température de l'air
td = dewpoint
ff = Vitesse du vent
fx = gusts
dd = Direction du vent
ppp = reduced air pressure
vv = visibility
sd = Ensoleillement
rr = Quantités de précipitations

stations d'obs. à proximité